Location: Erfurt
(50.9688°N, 11.0193°E)
Time: 09:25:09
(UTC+01:00)

Amateur Radio Satellites - All Passes

Search period start: 22 January 2018 08:55
Search period end: 23 January 2018 08:55
Location: Erfurt, 50.9688°N, 11.0193°E

Satellite Date Start Highest point End Downlink Frequencies (MHz)
Time Altitude Azimuth
HO-68 22 Jan 08:58:36 09:05:05 39° 303° (WNW) 09:11:34 435.675
RS-15 22 Jan 09:01:11 09:13:32 83° 127° (SE) 09:25:38 29.354- 29.394
CUTE-I 22 Jan 09:07:39 09:09:55 13° 312° (NW) 09:12:10 437.470
XW-2A 22 Jan 09:13:57 09:16:45 25° 294° (WNW) 09:19:32 145.665 - 145.685
FO-29 22 Jan 09:16:22 09:20:31 17° 272° (W) 09:24:25 435.910
SEEDS 22 Jan 09:17:04 09:19:30 15° 302° (WNW) 09:21:56 437.485
DELFI C3 22 Jan 09:19:02 09:22:30 29° 95° (E) 09:25:57 145.870
Oscar 11 22 Jan 09:20:49 09:25:05 60° 289° (WNW) 09:29:20 .
Max Valier Satellite 22 Jan 09:42:56 09:46:22 34° 97° (E) 09:49:46 145.860
SO-50 22 Jan 09:44:12 09:46:55 15° 359° (N) 09:49:39 436.795
DUCHIFAT 1 22 Jan 09:46:13 09:47:30 11° 53° (NE) 09:48:47 145.980
EO-79 22 Jan 09:47:50 09:50:10 15° 57° (ENE) 09:52:31 145.935-145.965
EO-88 22 Jan 09:58:45 10:02:06 34° 97° (E) 10:05:25 145.990 - 145.960
BEESAT 3 22 Jan 09:58:59 10:02:55 61° 126° (SE) 10:06:52 437.485
TIGRISAT 22 Jan 09:59:11 10:03:07 30° 266° (W) 10:07:10 435.000
AIST 2D 22 Jan 09:59:25 10:02:42 38° 70° (ENE) 10:05:59 435.315
UWE-3 22 Jan 09:59:51 10:01:59 13° 306° (NW) 10:04:07 435.000/436.395/437.385
PCSat 22 Jan 10:01:45 10:07:03 58° 120° (ESE) 10:12:23 145.827
PRISM 22 Jan 10:02:43 10:06:47 85° 252° (WSW) 10:10:52 437.425
YUBILEINY 22 Jan 10:14:31 10:23:20 88° 81° (E) 10:32:03 435.215
UNISAT 6 22 Jan 10:15:38 10:18:59 21° 270° (W) 10:22:26 437.425
O/OREOS (USA 219) 22 Jan 10:18:40 10:23:00 51° 249° (WSW) 10:27:21 437.305
ZACube-1 22 Jan 10:20:33 10:22:51 14° 305° (NW) 10:25:08 437.345
POLYITAN 1 22 Jan 10:21:36 10:25:12 27° 64° (ENE) 10:28:50 437.675
AO-73 22 Jan 10:26:35 10:28:48 14° 305° (NW) 10:31:00 145.935
NANOSAT C BR1 22 Jan 10:35:46 10:39:32 32° 66° (ENE) 10:43:21 145.865
BUGSAT 1 22 Jan 10:43:02 10:43:50 10° 53° (NE) 10:44:39 437.445
HO-68 22 Jan 10:48:25 10:50:56 12° 326° (NW) 10:53:28 435.675
BEESAT 2 22 Jan 10:50:03 10:54:00 56° 125° (SE) 10:57:59 435.950
QB50P2 22 Jan 10:50:45 10:54:53 55° 71° (ENE) 10:59:05 145.880/145.840
DELFI C3 22 Jan 10:53:46 10:57:13 30° 294° (WNW) 11:00:39 145.870
Gurwin Techsat 1B 22 Jan 11:00:51 11:03:05 13° 48° (NE) 11:05:20 435.225
Oscar 19 22 Jan 11:03:33 11:06:37 16° 52° (NE) 11:09:41 437.125/150
LO-87 22 Jan 11:13:50 11:17:12 34° 97° (E) 11:20:33 145.935 - 145.965
RS-15 22 Jan 11:15:21 11:27:15 51° 335° (NNW) 11:38:46 29.354- 29.394
Max Valier Satellite 22 Jan 11:17:03 11:20:02 23° 295° (WNW) 11:23:00 145.860
DUCHIFAT 1 22 Jan 11:18:11 11:22:22 71° 73° (ENE) 11:26:37 145.980
EO-79 22 Jan 11:21:05 11:25:19 84° 255° (WSW) 11:29:37 145.935-145.965
SO-50 22 Jan 11:25:18 11:28:58 22° 24° (NNE) 11:32:41 436.795
AO-85 22 Jan 11:25:57 11:29:03 22° 114° (ESE) 11:32:19 145.980
SPROUT 22 Jan 11:28:41 11:30:12 12° 86° (E) 11:31:43 437.525
EO-88 22 Jan 11:32:41 11:35:34 23° 296° (WNW) 11:38:27 145.990 - 145.960
AIST 2D 22 Jan 11:33:28 11:36:00 19° 268° (W) 11:38:33 435.315
BEESAT 3 22 Jan 11:37:19 11:40:44 26° 327° (NNW) 11:44:09 437.485
PCSat 22 Jan 11:45:47 11:50:45 35° 322° (NW) 11:55:45 145.827
ESTCUBE 1 22 Jan 11:46:20 11:50:48 60° 101° (E) 11:55:14 437.505/2401.250
AO-7 22 Jan 11:51:51 11:57:17 20° 35° (NE) 12:02:44 .
POLYITAN 1 22 Jan 11:56:52 12:00:50 38° 263° (W) 12:04:52 437.675
AO-91 22 Jan 12:01:13 12:04:11 28° 65° (ENE) 12:07:19 145.960
NANOSAT C BR1 22 Jan 12:11:27 12:15:13 31° 264° (W) 12:19:03 145.865
YUBILEINY 22 Jan 12:12:28 12:19:01 25° 284° (WNW) 12:25:32 435.215
BUGSAT 1 22 Jan 12:14:18 12:18:22 68° 72° (ENE) 12:22:33 437.445
QB50P2 22 Jan 12:27:59 12:31:01 19° 269° (W) 12:34:04 145.880/145.840
BEESAT 2 22 Jan 12:28:26 12:31:58 28° 326° (NW) 12:35:31 435.950
Gurwin Techsat 1B 22 Jan 12:36:48 12:42:00 59° 69° (ENE) 12:47:15 435.225
Oscar 19 22 Jan 12:39:57 12:45:09 78° 72° (ENE) 12:50:23 437.125/150
LO-87 22 Jan 12:47:32 12:50:26 22° 295° (WNW) 12:53:18 145.935 - 145.965
DUCHIFAT 1 22 Jan 12:56:10 12:58:32 15° 272° (W) 13:00:54 145.980
EO-79 22 Jan 13:00:48 13:01:47 11° 275° (W) 13:02:45 145.935-145.965
SPROUT 22 Jan 13:02:24 13:06:44 89° 90° (E) 13:11:03 437.525
AO-85 22 Jan 13:04:59 13:09:02 59° 316° (NW) 13:13:26 145.980
SO-50 22 Jan 13:05:31 13:10:12 71° 45° (NE) 13:14:57 436.795
VELOX 1 22 Jan 13:16:07 13:20:31 68° 103° (ESE) 13:24:54 145.980
BEESAT 3 22 Jan 13:17:52 13:19:32 12° 350° (N) 13:21:09 437.485
ESTCUBE 1 22 Jan 13:23:54 13:27:14 21° 300° (WNW) 13:30:32 437.505/2401.250
DX 1 22 Jan 13:28:24 13:31:45 21° 92° (E) 13:35:04 434.975-435.025
RS-15 22 Jan 13:31:28 13:42:53 43° 8° (N) 13:53:47 29.354- 29.394
PCSat 22 Jan 13:32:24 13:35:46 16° 347° (NNW) 13:39:08 145.827
AO-91 22 Jan 13:37:56 13:40:44 23° 266° (W) 13:43:40 145.960
AO-7 22 Jan 13:40:18 13:48:21 55° 59° (ENE) 13:56:27 .
50 SAT 22 Jan 13:47:33 13:50:09 24° 96° (E) 13:52:44 437.505
ITAMSAT 1 22 Jan 13:50:24 13:54:37 26° 59° (ENE) 13:58:50 435.822/435.867
BUGSAT 1 22 Jan 13:51:52 13:54:13 15° 272° (W) 13:56:34 437.445
M-CUBED/EXP-1 PRIME 22 Jan 14:08:42 14:10:22 12° 51° (NE) 14:11:59 437.505
BEESAT 2 22 Jan 14:09:05 14:10:56 13° 349° (N) 14:12:48 435.950
Gurwin Techsat 1B 22 Jan 14:18:01 14:22:20 25° 268° (W) 14:26:40 435.225
Oscar 19 22 Jan 14:21:34 14:25:05 18° 272° (W) 14:28:36 437.125/150
SPROUT 22 Jan 14:39:44 14:42:00 14° 304° (NW) 14:44:15 437.525
SO-50 22 Jan 14:46:39 14:50:16 22° 245° (WSW) 14:53:55 436.795
AO-85 22 Jan 14:47:14 14:50:22 19° 340° (NNW) 14:53:42 145.980
UKube-1 22 Jan 14:48:47 14:53:07 77° 104° (ESE) 14:57:26 .
VELOX 1 22 Jan 14:53:30 14:56:30 18° 302° (WNW) 14:59:30 145.980
BEESAT 3 22 Jan 14:56:45 14:58:40 13° 14° (NNE) 15:00:35 437.485
DOVE 4 22 Jan 14:57:33 15:00:42 21° 62° (ENE) 15:03:51 437.250
DX 1 22 Jan 15:03:59 15:08:12 50° 291° (WNW) 15:12:23 434.975-435.025
ITUPSAT 1 22 Jan 15:05:43 15:09:38 24° 93° (E) 15:13:30 437.325
PCSat 22 Jan 15:18:02 15:21:23 16° 13° (NNE) 15:24:44 145.827
50 SAT 22 Jan 15:19:15 15:21:48 23° 294° (WNW) 15:24:20 437.505
MOZHAYETS 4 22 Jan 15:22:08 15:26:44 56° 100° (E) 15:31:15
ITAMSAT 1 22 Jan 15:28:39 15:33:45 59° 258° (WSW) 15:38:53 435.822/435.867
CUBESAT XI-V 22 Jan 15:29:47 15:33:14 20° 90° (E) 15:36:40 437.345
AO-7 22 Jan 15:33:22 15:41:18 46° 261° (W) 15:49:18 .
CUTE-I 22 Jan 15:36:17 15:38:50 14° 49° (NE) 15:41:24 437.470
M-CUBED/EXP-1 PRIME 22 Jan 15:39:58 15:44:12 76° 69° (ENE) 15:48:08 437.505
BEESAT 22 Jan 15:43:55 15:48:37 51° 100° (E) 15:53:16 436.000
RS-15 22 Jan 15:45:44 15:57:43 70° 40° (NE) 16:09:00 29.354- 29.394
BEESAT 2 22 Jan 15:48:17 15:50:17 13° 13° (NNE) 15:52:19 435.950
HO-68 22 Jan 15:59:37 16:04:31 20° 45° (NE) 16:09:23 435.675
LilacSat-2 22 Jan 16:10:10 16:12:52 18° 62° (ENE) 16:15:34 437.200
XW-2C 22 Jan 16:10:32 16:13:05 17° 61° (ENE) 16:15:39 145.795 - 145.815
UKube-1 22 Jan 16:25:57 16:28:37 16° 303° (WNW) 16:31:16 .
AO-85 22 Jan 16:29:51 16:32:29 15° 5° (N) 16:35:14 145.980
BEESAT 3 22 Jan 16:33:43 16:37:20 32° 37° (NE) 16:40:53 437.485
DOVE 4 22 Jan 16:34:04 16:38:10 48° 261° (W) 16:42:13 437.250
KAITUO 1B 22 Jan 16:40:11 16:43:14 24° 65° (ENE) 16:46:16 145.475/437.950
KKS-1 22 Jan 16:40:57 16:43:42 16° 89° (E) 16:46:28 437.445
ITUPSAT 1 22 Jan 16:43:02 16:47:45 53° 291° (WNW) 16:52:25 437.325
XW-2F 22 Jan 16:44:16 16:47:41 32° 68° (ENE) 16:51:07 145.980 - 146.000
NUDT-PHONESAT 22 Jan 16:48:05 16:51:15 26° 66° (ENE) 16:54:24 437.300
XW-2D 22 Jan 16:55:04 16:58:44 46° 71° (ENE) 17:02:25 145.860 - 145.880
MOZHAYETS 4 22 Jan 16:59:55 17:03:33 23° 300° (WNW) 17:07:09
PCSat 22 Jan 17:01:25 17:06:25 35° 38° (NE) 17:11:23 145.827
NO-84 22 Jan 17:01:41 17:04:19 26° 141° (SE) 17:06:49 435.350 FM
SEEDS 22 Jan 17:03:01 17:05:13 14° 57° (ENE) 17:07:26 437.485
CUBESAT XI-V 22 Jan 17:06:25 17:10:59 57° 290° (WNW) 17:15:29 437.345
XW-2B 22 Jan 17:12:35 17:16:24 69° 73° (ENE) 17:20:12 145.730 - 145.750
CUTE-I 22 Jan 17:12:41 17:17:55 64° 70° (ENE) 17:23:12 437.470
M-CUBED/EXP-1 PRIME 22 Jan 17:16:46 17:18:56 14° 264° (W) 17:21:04 437.505
CUTE 1.7 + AOD 2 22 Jan 17:17:03 17:20:39 27° 64° (ENE) 17:24:16 437.475
BEESAT 22 Jan 17:22:10 17:26:08 26° 299° (WNW) 17:30:06 436.000
BEESAT 2 22 Jan 17:25:31 17:29:11 32° 36° (NE) 17:32:48 435.950
LilacSat-2 22 Jan 17:43:02 17:46:49 50° 261° (W) 17:50:35 437.200
XW-2C 22 Jan 17:43:08 17:46:54 54° 260° (W) 17:50:40 145.795 - 145.815
HO-68 22 Jan 17:44:00 17:51:05 69° 67° (ENE) 17:58:12 435.675
CUBEBUG 2 22 Jan 17:45:15 17:49:18 35° 66° (ENE) 17:53:30 437.445
UWE-3 22 Jan 17:47:44 17:51:21 24° 61° (ENE) 17:55:03 435.000/436.395/437.385
RS-15 22 Jan 17:58:46 18:09:45 48° 247° (WSW) 18:20:10 29.354- 29.394
ZACube-1 22 Jan 18:07:57 18:11:22 22° 60° (ENE) 18:14:50 437.345
AO-85 22 Jan 18:10:26 18:14:25 26° 29° (NNE) 18:18:37 145.980
BEESAT 3 22 Jan 18:11:13 18:14:56 41° 237° (WSW) 18:18:36 437.485
AAUSAT CUBESAT 2 22 Jan 18:13:23 18:16:54 28° 65° (ENE) 18:20:25 437.432
KAITUO 1B 22 Jan 18:13:35 18:17:03 35° 263° (W) 18:20:32 145.475/437.950
AO-73 22 Jan 18:13:40 18:17:05 22° 60° (ENE) 18:20:34 145.935
KKS-1 22 Jan 18:16:18 18:20:45 71° 288° (WNW) 18:25:12 437.445
XW-2A 22 Jan 18:16:54 18:19:33 21° 65° (ENE) 18:22:13 145.665 - 145.685
XW-2F 22 Jan 18:18:38 18:21:49 25° 266° (W) 18:25:01 145.980 - 146.000
NUDT-PHONESAT 22 Jan 18:21:40 18:25:00 30° 264° (W) 18:28:20 437.300
ITUPSAT 1 22 Jan 18:23:43 18:24:32 10° 312° (NW) 18:25:21 437.325
STARS 22 Jan 18:27:25 18:31:51 67° 103° (ESE) 18:36:15 437.465
XW-2D 22 Jan 18:30:28 18:33:09 18° 269° (W) 18:35:50 145.860 - 145.880
SEEDS 22 Jan 18:36:06 18:40:19 85° 256° (WSW) 18:44:33 437.485
NO-84 22 Jan 18:38:22 18:41:18 61° 340° (NNW) 18:44:08 435.350 FM
PCSat 22 Jan 18:44:47 18:50:08 59° 239° (WSW) 18:55:27 145.827
Oscar 11 22 Jan 18:44:49 18:48:26 26° 63° (ENE) 18:52:04 .
CUBESAT XI-V 22 Jan 18:46:42 18:47:23 10° 309° (NW) 18:48:04 437.345
XW-2B 22 Jan 18:49:16 18:51:01 13° 272° (W) 18:52:45 145.730 - 145.750
CUTE 1.7 + AOD 2 22 Jan 18:52:22 18:56:21 38° 263° (W) 19:00:22 437.475
CUTE-I 22 Jan 18:54:17 18:58:25 23° 269° (W) 19:02:35 437.470
BEESAT 2 22 Jan 19:03:10 19:07:02 45° 237° (WSW) 19:10:49 435.950
STRAND 1 22 Jan 19:05:53 19:10:21 29° 94° (E) 19:14:47 437.568
CUBEBUG 2 22 Jan 19:21:57 19:25:56 32° 266° (W) 19:30:05 437.445
UWE-3 22 Jan 19:23:09 19:27:30 51° 261° (W) 19:32:01 435.000/436.395/437.385
HO-68 22 Jan 19:33:17 19:39:23 30° 268° (W) 19:45:32 435.675
ZACube-1 22 Jan 19:42:50 19:47:16 58° 260° (W) 19:51:48 437.345
AAUSAT CUBESAT 2 22 Jan 19:48:27 19:52:15 35° 264° (W) 19:56:04 437.432
AO-73 22 Jan 19:48:31 19:52:56 58° 260° (W) 19:57:29 145.935
XW-2A 22 Jan 19:48:58 19:52:05 32° 263° (W) 19:55:13 145.665 - 145.685
AO-85 22 Jan 19:50:34 19:55:26 88° 55° (NE) 20:00:38 145.980
KKS-1 22 Jan 19:54:49 19:56:31 12° 307° (NW) 19:58:13 437.445
STARS 22 Jan 20:04:40 20:07:44 19° 302° (WNW) 20:10:49 437.465
DELFI C3 22 Jan 20:08:40 20:12:11 33° 67° (ENE) 20:15:43 145.870
SEEDS 22 Jan 20:15:45 20:16:40 11° 275° (W) 20:17:35 437.485
NO-84 22 Jan 20:16:05 20:18:46 34° 1° (N) 20:21:23 435.350 FM
FO-29 22 Jan 20:16:53 20:21:59 50° 99° (E) 20:27:03 435.910
RS-15 22 Jan 20:16:53 20:18:42 10° 272° (W) 20:20:30 29.354- 29.394
Oscar 11 22 Jan 20:20:15 20:24:23 42° 262° (W) 20:28:34 .
Max Valier Satellite 22 Jan 20:26:05 20:29:28 33° 68° (ENE) 20:32:52 145.860
nSIGHT-1 22 Jan 20:27:04 20:29:39 23° 146° (SE) 20:32:14 .
PCSat 22 Jan 20:31:26 20:32:25 10° 259° (W) 20:33:24 145.827
EO-88 22 Jan 20:40:42 20:43:58 32° 68° (ENE) 20:47:16 145.990 - 145.960
STRAND 1 22 Jan 20:44:48 20:49:44 48° 293° (WNW) 20:54:40 437.568
ISS 22 Jan 20:47:19 20:50:02 24° 146° (SE) 20:52:46 437.550
ESTCUBE 1 22 Jan 21:15:56 21:18:40 16° 56° (ENE) 21:21:24 437.505/2401.250
YUBILEINY 22 Jan 21:28:01 21:34:18 22° 75° (ENE) 21:40:33 435.215
AO-85 22 Jan 21:31:57 21:35:22 19° 247° (WSW) 21:38:55 145.980
DELFI C3 22 Jan 21:43:39 21:46:58 26° 266° (W) 21:50:18 145.870
TIGRISAT 22 Jan 21:44:36 21:49:05 42° 97° (E) 21:53:33 435.000
NO-84 22 Jan 21:53:22 21:56:11 67° 22° (NNE) 21:59:02 435.350 FM
LO-87 22 Jan 21:54:13 21:57:24 30° 67° (ENE) 22:00:36 145.935 - 145.965
Max Valier Satellite 22 Jan 22:00:14 22:03:20 24° 266° (W) 22:06:26 145.860
UNISAT 6 22 Jan 22:00:19 22:05:01 63° 101° (E) 22:09:40 437.425
nSIGHT-1 22 Jan 22:02:20 22:05:30 78° 164° (SSE) 22:08:41 .
FO-29 22 Jan 22:02:31 22:06:55 28° 300° (WNW) 22:11:16 435.910
EO-88 22 Jan 22:14:39 22:17:39 24° 266° (W) 22:20:41 145.990 - 145.960
ISS 22 Jan 22:22:57 22:26:12 80° 168° (SSE) 22:29:30 437.550
SPROUT 22 Jan 22:25:58 22:28:53 18° 59° (ENE) 22:31:47 437.525
STRAND 1 22 Jan 22:27:09 22:27:46 10° 314° (NW) 22:28:24 437.568
VELOX 1 22 Jan 22:43:30 22:46:18 17° 57° (ENE) 22:49:07 145.980
ESTCUBE 1 22 Jan 22:50:21 22:54:53 84° 256° (WSW) 22:59:26 437.505/2401.250
AIST 2D 22 Jan 22:52:15 22:55:05 23° 94° (E) 22:57:53 435.315
EO-79 22 Jan 23:02:30 23:04:00 12° 86° (E) 23:05:31 145.935-145.965
PRISM 22 Jan 23:13:47 23:17:53 77° 103° (ESE) 23:21:58 437.425
YUBILEINY 22 Jan 23:20:59 23:29:49 85° 97° (E) 23:38:39 435.215
TIGRISAT 22 Jan 23:21:33 23:25:38 30° 296° (WNW) 23:29:42 435.000
LO-87 22 Jan 23:27:52 23:30:49 24° 266° (W) 23:33:48 145.935 - 145.965
NO-84 22 Jan 23:30:50 23:33:06 22° 220° (SW) 23:35:25 435.350 FM
POLYITAN 1 22 Jan 23:36:27 23:39:59 24° 93° (E) 23:43:30 437.675
UNISAT 6 22 Jan 23:37:46 23:41:19 22° 300° (WNW) 23:44:51 437.425
nSIGHT-1 22 Jan 23:38:32 23:41:42 78° 3° (N) 23:44:54 .
NANOSAT C BR1 22 Jan 23:50:05 23:53:51 29° 95° (E) 23:57:34 145.865
ISS 22 Jan 23:59:28 00:02:46 79° 7° (N) 00:06:03 437.550
SPROUT 23 Jan 00:00:06 00:04:19 65° 258° (WSW) 00:08:35 437.525
QB50P2 23 Jan 00:05:56 00:10:08 51° 100° (E) 00:14:19 145.880/145.840
UKube-1 23 Jan 00:13:31 00:16:25 18° 58° (ENE) 00:19:21 .
50 SAT 23 Jan 00:16:54 00:19:00 17° 64° (ENE) 00:21:08 437.505
VELOX 1 23 Jan 00:17:52 00:22:14 74° 256° (WSW) 00:26:39 145.980
AIST 2D 23 Jan 00:25:11 00:28:16 30° 292° (WNW) 00:31:19 435.315
DX 1 23 Jan 00:28:18 00:32:13 35° 65° (ENE) 00:36:10 434.975-435.025
ESTCUBE 1 23 Jan 00:30:49 00:32:24 12° 274° (W) 00:33:59 437.505/2401.250
DUCHIFAT 1 23 Jan 00:32:22 00:36:37 65° 102° (ESE) 00:40:51 145.980
O/OREOS (USA 219) 23 Jan 00:35:31 00:39:59 68° 114° (ESE) 00:44:28 437.305
EO-79 23 Jan 00:36:05 00:40:25 89° 108° (ESE) 00:44:42 145.935-145.965
Oscar 19 23 Jan 00:47:15 00:50:51 19° 89° (E) 00:54:25 437.125/150
Gurwin Techsat 1B 23 Jan 00:49:01 00:52:07 15° 87° (E) 00:55:13 435.225
PRISM 23 Jan 00:50:20 00:52:37 15° 303° (WNW) 00:54:55 437.425
MOZHAYETS 4 23 Jan 00:53:51 00:56:38 16° 56° (NE) 00:59:26
POLYITAN 1 23 Jan 01:11:50 01:15:56 42° 292° (WNW) 01:19:59 437.675
nSIGHT-1 23 Jan 01:14:45 01:17:49 48° 204° (SSW) 01:20:54 .
BEESAT 23 Jan 01:19:23 01:22:35 18° 56° (NE) 01:25:46 436.000
AO-91 23 Jan 01:20:08 01:24:19 39° 98° (E) 01:28:53 145.960
YUBILEINY 23 Jan 01:20:26 01:27:47 29° 302° (WNW) 01:35:10 435.215
NANOSAT C BR1 23 Jan 01:25:41 01:29:36 35° 293° (WNW) 01:33:29 145.865
BUGSAT 1 23 Jan 01:25:56 01:30:08 58° 101° (E) 01:34:20 437.445
ISS 23 Jan 01:36:00 01:39:10 47° 205° (SSW) 01:42:20 437.550
QB50P2 23 Jan 01:42:19 01:45:38 22° 299° (WNW) 01:48:55 145.880/145.840
50 SAT 23 Jan 01:47:40 01:50:30 33° 262° (W) 01:53:21 437.505
UKube-1 23 Jan 01:47:44 01:52:00 66° 257° (WSW) 01:56:18 .
DX 1 23 Jan 02:04:37 02:08:26 30° 264° (W) 02:12:17 434.975-435.025
DUCHIFAT 1 23 Jan 02:08:56 02:11:50 18° 301° (WNW) 02:14:45 145.980
EO-79 23 Jan 02:13:18 02:15:33 14° 304° (NW) 02:17:46 145.935-145.965
O/OREOS (USA 219) 23 Jan 02:16:22 02:19:51 22° 315° (NW) 02:23:21 437.305
ITUPSAT 1 23 Jan 02:16:55 02:21:30 48° 67° (ENE) 02:26:08 437.325
Oscar 19 23 Jan 02:25:34 02:30:46 75° 287° (WNW) 02:35:54 437.125/150
Gurwin Techsat 1B 23 Jan 02:27:28 02:32:50 89° 100° (E) 02:38:10 435.225
MOZHAYETS 4 23 Jan 02:28:30 02:33:09 88° 257° (WSW) 02:37:51
CUBESAT XI-V 23 Jan 02:37:24 02:41:40 36° 66° (ENE) 02:45:56 437.345
nSIGHT-1 23 Jan 02:52:12 02:53:23 12° 222° (SW) 02:54:35 .
BEESAT 23 Jan 02:55:00 02:59:46 81° 256° (WSW) 03:04:36 436.000
AO-91 23 Jan 02:56:50 03:00:42 31° 294° (WNW) 03:04:55 145.960
BUGSAT 1 23 Jan 03:02:02 03:05:07 20° 300° (WNW) 03:08:12 437.445
ISS 23 Jan 03:13:50 03:15:02 12° 223° (SW) 03:16:14 437.550
AO-7 23 Jan 03:28:28 03:36:31 48° 100° (E) 03:44:29 .
ITAMSAT 1 23 Jan 03:36:19 03:41:01 33° 96° (E) 03:45:41 435.822/435.867
KKS-1 23 Jan 03:43:16 03:47:02 28° 63° (ENE) 03:50:48 437.445
STARS 23 Jan 03:54:17 03:57:05 17° 57° (ENE) 03:59:54 437.465
ITUPSAT 1 23 Jan 03:55:34 03:59:34 26° 267° (W) 04:03:35 437.325
Oscar 19 23 Jan 04:06:20 04:09:14 15° 309° (NW) 04:12:08 437.125/150
Gurwin Techsat 1B 23 Jan 04:08:31 04:12:07 19° 306° (NW) 04:15:43 435.225
MOZHAYETS 4 23 Jan 04:08:58 04:11:01 13° 274° (W) 04:13:05
CUBESAT XI-V 23 Jan 04:14:48 04:19:03 34° 264° (W) 04:23:19 437.345
DOVE 4 23 Jan 04:26:54 04:30:41 28° 95° (E) 04:34:36 437.250
BEESAT 23 Jan 04:36:30 04:38:20 12° 274° (W) 04:40:10 436.000
M-CUBED/EXP-1 PRIME 23 Jan 04:48:22 04:50:46 18° 99° (E) 04:53:06 437.505
STRAND 1 23 Jan 04:50:50 04:53:17 14° 50° (NE) 04:55:45 437.568
SO-50 23 Jan 05:04:39 05:08:44 36° 120° (ESE) 05:12:53 436.795
XW-2C 23 Jan 05:12:18 05:13:33 11° 87° (E) 05:14:47 145.795 - 145.815
LilacSat-2 23 Jan 05:12:32 05:14:13 12° 88° (E) 05:15:52 437.200
ITAMSAT 1 23 Jan 05:15:41 05:20:36 43° 295° (WNW) 05:25:29 435.822/435.867
KKS-1 23 Jan 05:19:16 05:23:26 40° 261° (W) 05:27:38 437.445
AO-7 23 Jan 05:21:22 05:29:25 53° 302° (WNW) 05:37:25 .
CUTE-I 23 Jan 05:25:28 05:28:53 17° 88° (E) 05:32:18 437.470
STARS 23 Jan 05:28:33 05:32:54 75° 256° (WSW) 05:37:18 437.465
KAITUO 1B 23 Jan 05:39:56 05:42:17 16° 90° (E) 05:44:36 145.475/437.950
XW-2F 23 Jan 05:45:03 05:48:05 23° 93° (E) 05:51:04 145.980 - 146.000
NUDT-PHONESAT 23 Jan 05:46:41 05:49:13 17° 91° (E) 05:51:44 437.300
XW-2D 23 Jan 05:56:25 05:59:52 33° 96° (E) 06:03:17 145.860 - 145.880
DOVE 4 23 Jan 06:04:28 06:08:27 38° 292° (WNW) 06:12:39 437.250
XW-2B 23 Jan 06:13:59 06:17:40 49° 100° (E) 06:21:18 145.730 - 145.750
SEEDS 23 Jan 06:16:37 06:18:04 12° 86° (E) 06:19:31 437.485
RS-15 23 Jan 06:18:56 06:27:18 22° 97° (E) 06:35:32 29.354- 29.394
M-CUBED/EXP-1 PRIME 23 Jan 06:22:13 06:25:22 36° 298° (WNW) 06:28:24 437.505
STRAND 1 23 Jan 06:26:31 06:31:33 67° 71° (ENE) 06:36:39 437.568
CUTE 1.7 + AOD 2 23 Jan 06:31:59 06:35:32 26° 93° (E) 06:39:03 437.475
FO-29 23 Jan 06:33:45 06:39:47 43° 65° (ENE) 06:45:12 435.910
XW-2C 23 Jan 06:44:27 06:48:14 75° 286° (WNW) 06:51:58 145.795 - 145.815
SO-50 23 Jan 06:44:49 06:49:07 44° 321° (NW) 06:53:33 436.795
LilacSat-2 23 Jan 06:45:09 06:48:57 68° 286° (WNW) 06:52:40 437.200
HO-68 23 Jan 06:53:40 07:00:31 45° 98° (E) 07:07:19 435.675
CUTE-I 23 Jan 07:04:16 07:09:38 84° 287° (WNW) 07:14:58 437.470
CUBEBUG 2 23 Jan 07:06:45 07:11:15 40° 96° (E) 07:15:44 437.445
XW-2A 23 Jan 07:06:57 07:07:45 11° 88° (E) 07:08:32 145.665 - 145.685
UWE-3 23 Jan 07:07:41 07:11:36 25° 92° (E) 07:15:27 435.000/436.395/437.385
KAITUO 1B 23 Jan 07:12:56 07:16:32 49° 289° (WNW) 07:20:06 145.475/437.950
TIGRISAT 23 Jan 07:15:00 07:16:24 11° 51° (NE) 07:17:47 435.000
AO-7 23 Jan 07:15:06 07:20:26 19° 326° (NW) 07:25:45 .
XW-2F 23 Jan 07:18:50 07:22:16 34° 292° (WNW) 07:25:40 145.980 - 146.000
NUDT-PHONESAT 23 Jan 07:19:45 07:23:16 44° 290° (WNW) 07:26:46 437.300
O/OREOS (USA 219) 23 Jan 07:23:40 07:25:05 11° 33° (NNE) 07:26:28 437.305
AAUSAT CUBESAT 2 23 Jan 07:25:08 07:28:33 25° 93° (E) 07:31:56 437.432
ZACube-1 23 Jan 07:26:29 07:29:59 21° 90° (E) 07:33:25 437.345
YUBILEINY 23 Jan 07:29:09 07:34:21 17° 45° (NE) 07:39:30 435.215
UNISAT 6 23 Jan 07:29:22 07:32:05 16° 56° (NE) 07:34:49 437.425
XW-2D 23 Jan 07:30:49 07:33:55 25° 295° (WNW) 07:37:00 145.860 - 145.880
AO-73 23 Jan 07:31:50 07:35:18 21° 90° (E) 07:38:42 145.935
XW-2B 23 Jan 07:48:54 07:51:30 18° 298° (WNW) 07:54:06 145.730 - 145.750
SEEDS 23 Jan 07:50:11 07:54:22 87° 285° (WNW) 07:58:31 437.485
Oscar 11 23 Jan 08:02:22 08:05:59 25° 93° (E) 08:09:33 .
STRAND 1 23 Jan 08:07:28 08:11:14 21° 270° (W) 08:15:02 437.568
CUTE 1.7 + AOD 2 23 Jan 08:07:33 08:11:29 38° 292° (WNW) 08:15:22 437.475
FO-29 23 Jan 08:18:49 08:24:57 40° 263° (W) 08:30:27 435.910
RS-15 23 Jan 08:25:23 08:37:34 70° 122° (ESE) 08:49:30 29.354- 29.394
SO-50 23 Jan 08:27:34 08:30:42 18° 345° (NNW) 08:33:53 436.795
PRISM 23 Jan 08:34:24 08:36:42 15° 57° (ENE) 08:38:59 437.425
XW-2A 23 Jan 08:37:30 08:40:51 64° 287° (WNW) 08:44:09 145.665 - 145.685
HO-68 23 Jan 08:41:31 08:48:19 47° 299° (WNW) 08:55:04 435.675
CUBEBUG 2 23 Jan 08:43:34 08:47:45 31° 296° (WNW) 08:51:55 437.445
UWE-3 23 Jan 08:43:45 08:48:15 47° 291° (WNW) 08:52:41 435.000/436.395/437.385
CUTE-I 23 Jan 08:45:32 08:48:57 18° 307° (NW) 08:52:21 437.470
